Lacey, Washington, United States (98503)
Lat: 47.03N, Lon: 122.82W
Wx Zone: WAZ504
Local Info
Past Weather Observations for Today

NOTE: This archive is for the closest National Weather Service station to Lacey. Information may differ from the station used for current weather conditions.

Time Weather Temperature Dewpoint Humidity Pressure Winds Precip Visibility
21:54
Clear
43°F / 6°C 37°F / 3°C 81% 29.95 in
(1014 mb)
Calm - 10SM
20:54
Clear
48°F / 9°C 36°F / 2°C 62% 29.95 in
(1014 mb)
NE 3.5 mph
(NE 6 kph)
- 10SM
19:54
Clear
52°F / 11°C 36°F / 2°C 54% 29.98 in
(1015 mb)
NE 4.6 mph
(NE 7 kph)
- 10SM
18:54
Clear
55°F / 13°C 36°F / 2°C 47% 29.98 in
(1015 mb)
NE 3.5 mph
(NE 6 kph)
- 8SM
17:54
Clear
57°F / 14°C 34°F / 1°C 41% 30.01 in
(1016 mb)
Calm - 10SM
16:54
Partly Cloudy
57°F / 14°C 34°F / 1°C 41% 30.04 in
(1017 mb)
Calm - 10SM
15:54
Mostly Cloudy
57°F / 14°C 34°F / 1°C 41% 30.06 in
(1018 mb)
Calm - 10SM
14:54
Mostly Cloudy
57°F / 14°C 36°F / 2°C 44% 30.06 in
(1018 mb)
Calm - 10SM
13:54
Mostly Cloudy
57°F / 14°C 37°F / 3°C 48% 30.09 in
(1019 mb)
SW 6.9 mph
(SW 11 kph)
- 10SM
12:54
Mostly Cloudy
54°F / 12°C 36°F / 2°C 51% 30.12 in
(1020 mb)
SSW 8.1 mph
(SSW 13 kph)
- 9SM
11:54
Mostly Cloudy
55°F / 13°C 37°F / 3°C 51% 30.12 in
(1020 mb)
SW 8.1 mph
(SW 13 kph)
- 9SM
10:54
Mostly Cloudy
52°F / 11°C 37°F / 3°C 58% 30.12 in
(1020 mb)
SW 4.6 mph
(SW 7 kph)
- 9SM
09:54
Mostly Cloudy
52°F / 11°C 39°F / 4°C 62% 30.15 in
(1021 mb)
W 11.5 mph
(W 19 kph)
- 10SM
08:54
Partly Cloudy
50°F / 10°C 39°F / 4°C 67% 30.12 in
(1020 mb)
SW 8.1 mph
(SW 13 kph)
- 10SM
07:54
Clear
46°F / 8°C 39°F / 4°C 76% 30.12 in
(1020 mb)
SW 12.7 mph
(SW 20 kph)
- 8SM
06:54
Partly Cloudy
45°F / 7°C 39°F / 4°C 81% 30.09 in
(1019 mb)
S 9.2 mph
(S 15 kph)
- 7SM
05:54
Partly Cloudy
41°F / 5°C 37°F / 3°C 87% 30.09 in
(1019 mb)
S 5.8 mph
(S 9 kph)
- 7SM
04:54
Overcast
43°F / 6°C 37°F / 3°C 81% 30.06 in
(1018 mb)
SW 6.9 mph
(SW 11 kph)
- 8SM
03:54
Mostly Cloudy
43°F / 6°C 37°F / 3°C 81% 30.06 in
(1018 mb)
SSE 10.4 mph
(SSE 17 kph)
- 9SM
02:54
Mostly Cloudy
45°F / 7°C 39°F / 4°C 81% 30.04 in
(1017 mb)
SW 11.5 mph
(SW 19 kph)
- 9SM
01:54
Overcast
45°F / 7°C 37°F / 3°C 76% 30.04 in
(1017 mb)
SW 10.4 mph
(SW 17 kph)
- 10SM
00:54
Overcast
45°F / 7°C 39°F / 4°C 81% 30.01 in
(1016 mb)
SW 8.1 mph
(SW 13 kph)
- 9SM
00:35
Overcast
45°F / 7°C 39°F / 4°C 81% 30.01 in
(1016 mb)
S 13.8 mph
(S 22 kph)
- 8SM
Time Weather Temperature Dewpoint Humidity Pressure Winds Precip Visibility


Weather for websites

WeatherForYou.com, LLC is not responsible for any damages or problems caused by this service. Current weather conditions are obtained from the closest station including government and personal stations which may have varying degrees of accuracy. Weather forecasts are derived from the NOAA NDFD. Like all things, this site belongs to Jesus Christ... He just trusts me to maintain it. If you have any questions or comments email webmaster@weatherforyou.com

Copyright © 2014, WeatherForYou.com LLC. All rights reserved.